Location: ??
(35.1714°N, 128.2806°E)
Time: 09:41:12
(UTC+00:00)

X-37B - Visible Passes

Search period start: 19 June 2021 00:00
Search period end: 29 June 2021 00:00
Orbit: 386 x 389 km, 45.0° (Epoch: 10 June)

Date Brightness Start Highest point End Pass type
(mag) Time Alt. Az. Time Alt. Az. Time Alt. Az.
19 Jun 3.8 16:47:22 14° N 16:47:22 14° N 16:49:04 10° NNE visible
19 Jun 3.3 18:22:15 10° NW 18:24:46 21° NNE 18:27:16 10° ENE visible
20 Jun 3.6 17:24:03 10° NNW 17:26:10 16° N 17:28:17 10° NE visible
20 Jun 1.4 19:00:10 10° NW 19:03:17 53° NNE 19:06:24 10° ESE visible
21 Jun 2.9 11:35:26 10° SSE 11:35:26 10° SSE 11:35:26 10° SSE visible
21 Jun 4.1 16:28:52 12° NNE 16:28:52 12° NNE 16:29:20 10° NE visible
21 Jun 2.5 18:01:57 10° NW 18:04:50 31° NNE 18:07:42 10° E visible
21 Jun 1.2 19:38:33 10° WNW 19:41:28 34° SW 19:44:23 10° SSE visible
22 Jun 0.6 12:11:36 10° SW 12:14:41 52° SE 12:16:20 24° ENE visible
22 Jun 3.8 13:48:47 10° WNW 13:48:52 11° WNW 13:48:52 11° WNW visible
22 Jun 3.4 17:07:15 18° NE 17:07:15 18° NE 17:08:48 10° ENE visible
22 Jun 0.4 18:40:01 10° WNW 18:43:11 75° SSW 18:46:20 10° SE visible
23 Jun 1.7 11:13:47 10° SSW 11:16:27 25° SE 11:19:07 10° E visible
23 Jun 2.0 12:49:58 10° W 12:52:58 38° NNW 12:55:49 11° NE visible
23 Jun 3.3 17:47:28 13° ESE 17:47:28 13° ESE 17:47:56 10° ESE visible
23 Jun 2.2 19:20:02 14° WSW 19:21:13 17° SW 19:23:20 10° S visible
24 Jun 0.8 11:51:24 10° WSW 11:54:33 73° NNW 11:57:44 10° NE visible
24 Jun 3.5 13:29:16 10° WNW 13:31:35 18° NNW 13:33:36 11° NNE visible
25 Jun 3.0 12:30:19 10° WNW 12:33:00 25° NNW 12:35:42 10° NE visible
25 Jun 3.8 14:08:39 10° NW 14:10:24 14° N 14:10:27 14° N visible
26 Jun 2.2 11:31:30 10° W 11:34:31 38° NNW 11:37:31 10° NE visible
26 Jun 3.7 13:09:48 10° NW 13:11:45 15° N 13:13:41 10° NNE visible
27 Jun 3.5 12:10:49 10° WNW 12:13:07 18° NNW 12:15:25 10° NNE visible
27 Jun 3.6 13:48:45 10° NNW 13:50:36 14° N 13:50:58 14° NNE visible
28 Jun 3.6 12:50:11 10° NW 12:51:56 14° N 12:53:42 10° NNE visible
28 Jun 4.1 14:26:49 10° NW 14:27:11 12° NNW 14:27:11 12° NNW visible
